sat.trackr.live / text

‹ back to catalog

BSAT-3C (JCSAT-110R)

NORAD 37776 · 2011-041B

PAYLOAD ACTIVE UNKNOWN

§ Identity

Operator
Country
JPN
Launch date
2011-08-06
Launch site
FRGUI
Launch vehicle
Mass (kg)
RCS (m²)
23.59

Purposes: comms

External: N2YO · Heavens-Above · Gunter

§ Orbital elements

Epoch: 2026-09-12T00:44:27.504096Z

Period
1,436.06 min
Inclination
0.0503°
Eccentricity
0.0000102
Mean motion
1.00274258 rev/d
Perigee alt
35,785.5 km
Apogee alt
35,786.3 km
Semi-major
42,164.0 km
B*
0.0000e+0
RAAN
324.0678°
Arg perigee
269.0368°
Mean anomaly
238.9965°
Rev number
5,134

§ Raw data

BSAT-3C (JCSAT-110R)1 37776U 11041B   26255.03087389 -.00000366  00000+0  00000+0 0  99992 37776   0.0503 324.0678 0000102 269.0368 238.9965  1.00274258 51341

JSON: /api/v1/satellites/37776 · /tle

For live sub-satellite position, see the globe view (requires WebGL).

§ Visibility from observer

Set your observer location to see the next 7 days of passes ≥ 10°. The values pass through the URL so the page stays shareable.

No JS? Fill the form by hand. The geolocation button needs JavaScript.